Weather History for Bastrop, LA

Change the Weather History Date:

Saturday, June 15, 2013

  Actual Average (KMLU) Record (KMLU)
Temperature  
Mean Temperature 78 °F 81 °F  
Max Temperature 92 °F 92 °F 104 °F (1963)
Min Temperature 64 °F 70 °F 55 °F (1933)
Degree Days  
Heating Degree Days 0 0  
Month to date heating degree days 0  
Since 1 June heating degree days 0  
Since 1 July heating degree days 2230  
Cooling Degree Days 13 16  
Month to date cooling degree days 215  
Year to date cooling degree days 650  
Since 1 June cooling degree days 215  
Growing Degree Days 28 (Base 50)    
Moisture  
Dew Point 65 °F    
Average Humidity 67    
Maximum Humidity 92    
Minimum Humidity 38    
Precipitation  
Precipitation 0.00 in 0.16 in 2.44 in (1958)
Month to date precipitation 2.26  
Year to date precipitation 26.31  
Snow  
Snow 0.00 in - - ()
Month to date snowfall  
Since 1 June snowfall  
Since 1 July snowfall  
Snow Depth -    
Sea Level Pressure  
Sea Level Pressure 30.01 in    
Wind  
Wind Speed 0 mph (North)    
Max Wind Speed 0 mph    
Max Gust Speed -    
Visibility 10 miles    
Events      
T = Trace of Precipitation, MM = Missing Value Source: NWS Daily Summary

Daily Weather History Graph

Daily Weather History Graph

Search for Another Location

Airport:

Trip Planner

Search our weather history database for the weather conditions in past years. The results will help you decide how hot, cold, wet, or windy it might be!

Date:

Astronomy

Jun. 15, 2013 Rise Set
Actual Time 5:59 AM CDT 8:17 PM CDT
Civil Twilight 5:30 AM CDT 8:45 PM CDT
Nautical Twilight 4:55 AM CDT 9:20 PM CDT
Astronomical Twilight 4:17 AM CDT 9:58 PM CDT
Moon 12:15 PM CDT (6/15) 12:10 AM CDT (6/15)
Length of Visible Light 15h 15m
Length of Day
14h 18m
Waxing Crescent, 40% of the Moon is Illuminated
Jun 15
Waxing Crescent
Jun 16
First Quarter
Jun 23
Full
Jun 29
Last Quarter
Jul 8
New

Hourly Weather History & Observations

Time (CDT) Temp. Heat Index Dew Point Humidity Pressure Visibility Wind Dir Wind Speed Gust Speed Precip Events Conditions
12:15 AM 70.0 °F - 65.1 °F 85% 30.01 in 10.0 mi Calm Calm - N/A   Clear
12:35 AM 70.3 °F - 65.1 °F 83% 30.01 in 10.0 mi Calm Calm - N/A   Clear
12:55 AM 69.1 °F - 64.9 °F 87% 30.01 in 10.0 mi Calm Calm - N/A   Clear
1:15 AM 68.4 °F - 64.4 °F 87% 30.01 in 10.0 mi Calm Calm - N/A   Clear
1:35 AM 68.2 °F - 63.9 °F 86% 30.00 in 10.0 mi Calm Calm - N/A   Clear
1:55 AM 67.6 °F - 63.7 °F 87% 29.99 in 10.0 mi Calm Calm - N/A   Clear
2:15 AM 67.1 °F - 63.9 °F 89% 29.99 in 10.0 mi Calm Calm - N/A   Clear
2:35 AM 66.9 °F - 63.1 °F 88% 29.99 in 10.0 mi Calm Calm - N/A   Clear
2:55 AM 66.6 °F - 63.0 °F 88% 29.99 in 10.0 mi Calm Calm - N/A   Clear
3:15 AM 66.2 °F - 63.0 °F 89% 29.99 in 10.0 mi Calm Calm - N/A   Clear
3:35 AM 66.9 °F - 63.1 °F 88% 29.98 in 10.0 mi Calm Calm - N/A   Clear
3:55 AM 67.1 °F - 63.3 °F 88% 29.98 in 10.0 mi Calm Calm - N/A   Clear
4:15 AM 66.4 °F - 63.0 °F 89% 29.99 in 10.0 mi Calm Calm - N/A   Clear
4:35 AM 66.6 °F - 63.1 °F 89% 30.00 in 10.0 mi Calm Calm - N/A   Clear
4:55 AM 65.7 °F - 62.8 °F 90% 30.00 in 10.0 mi Calm Calm - N/A   Clear
5:15 AM 65.3 °F - 62.6 °F 91% 30.01 in 10.0 mi Calm Calm - N/A   Clear
5:35 AM 65.3 °F - 62.6 °F 91% 30.01 in 10.0 mi Calm Calm - N/A   Clear
5:55 AM 64.9 °F - 62.2 °F 91% 30.02 in 10.0 mi Calm Calm - N/A   Clear
6:15 AM 65.1 °F - 62.6 °F 92% 30.02 in 10.0 mi Calm Calm - N/A   Clear
6:35 AM 65.3 °F - 62.8 °F 92% 30.02 in 7.0 mi Calm Calm - N/A   Clear
6:55 AM 66.6 °F - 63.7 °F 90% 30.03 in 7.0 mi Calm Calm - N/A   Clear
7:15 AM 69.3 °F - 64.9 °F 86% 30.03 in 10.0 mi Calm Calm - N/A   Clear
7:35 AM 71.2 °F - 66.6 °F 85% 30.04 in 10.0 mi Calm Calm - N/A   Clear
7:55 AM 75.0 °F - 66.0 °F 73% 30.04 in 10.0 mi Calm Calm - N/A   Clear
8:15 AM 76.6 °F - 65.1 °F 67% 30.04 in 10.0 mi Calm Calm - N/A   Clear
8:35 AM 78.4 °F - 65.8 °F 65% 30.04 in 10.0 mi Calm Calm - N/A   Clear
8:55 AM 79.7 °F - 65.5 °F 62% 30.05 in 10.0 mi Calm Calm - N/A   Clear
9:15 AM 80.2 °F 82.2 °F 65.5 °F 61% 30.05 in 10.0 mi Calm Calm - N/A   Clear
9:35 AM 82.0 °F 84.1 °F 66.0 °F 58% 30.06 in 10.0 mi Calm Calm - N/A   Clear
9:55 AM 82.9 °F 85.2 °F 66.2 °F 57% 30.06 in 10.0 mi Calm Calm - N/A   Clear
10:15 AM 84.6 °F 86.6 °F 65.5 °F 53% 30.05 in 10.0 mi Calm Calm - N/A   Clear
10:35 AM 84.9 °F 86.6 °F 65.1 °F 51% 30.05 in 10.0 mi Calm Calm - N/A   Clear
10:55 AM 84.9 °F 86.6 °F 64.8 °F 51% 30.05 in 10.0 mi Calm Calm - N/A   Clear
11:15 AM 86.9 °F 88.6 °F 64.9 °F 48% 30.05 in 10.0 mi Calm Calm - N/A   Clear
11:35 AM 86.7 °F 88.1 °F 64.4 °F 47% 30.04 in 10.0 mi Calm Calm - N/A   Clear
11:55 AM 87.6 °F 88.8 °F 63.9 °F 45% 30.04 in 10.0 mi Calm Calm - N/A   Clear
12:15 PM 87.4 °F 88.8 °F 64.2 °F 46% 30.04 in 10.0 mi Calm Calm - N/A   Clear
12:35 PM 87.8 °F 89.4 °F 64.6 °F 46% 30.03 in 10.0 mi Calm Calm - N/A   Clear
12:55 PM 88.0 °F 89.0 °F 63.5 °F 44% 30.03 in 10.0 mi Calm Calm - N/A   Clear
1:15 PM 88.3 °F 89.2 °F 63.0 °F 43% 30.02 in 10.0 mi Calm Calm - N/A   Clear
1:35 PM 89.4 °F 90.5 °F 63.7 °F 42% 30.03 in 10.0 mi Calm Calm - N/A   Clear
1:55 PM 90.3 °F 91.5 °F 63.5 °F 41% 30.02 in 10.0 mi Calm Calm - N/A   Clear
2:15 PM 90.7 °F 92.4 °F 64.4 °F 42% 30.02 in 10.0 mi Calm Calm - N/A   Clear
2:35 PM 91.2 °F 92.9 °F 64.4 °F 41% 30.01 in 10.0 mi Calm Calm - N/A   Clear
2:55 PM 91.6 °F 92.7 °F 63.7 °F 39% 30.01 in 10.0 mi Calm Calm - N/A   Clear
3:15 PM 91.6 °F 93.1 °F 64.4 °F 40% 30.00 in 10.0 mi Calm Calm - N/A   Clear
3:35 PM 91.8 °F 93.0 °F 63.7 °F 39% 29.99 in 10.0 mi Calm Calm - N/A   Clear
3:55 PM 91.8 °F 93.4 °F 64.6 °F 40% 29.99 in 10.0 mi Calm Calm - N/A   Clear
4:15 PM 92.3 °F 93.4 °F 63.3 °F 38% 29.99 in 10.0 mi Calm Calm - N/A   Clear
4:35 PM 91.9 °F 92.9 °F 62.8 °F 38% 29.98 in 10.0 mi Calm Calm - N/A   Clear
4:55 PM 91.8 °F 93.0 °F 63.3 °F 39% 29.98 in 10.0 mi Calm Calm - N/A   Clear
5:15 PM 89.8 °F 91.8 °F 65.1 °F 44% 29.97 in 10.0 mi Calm Calm - N/A   Clear
5:35 PM 91.4 °F 94.5 °F 66.6 °F 44% 29.97 in 10.0 mi Calm Calm - N/A   Clear
5:55 PM 90.9 °F 92.3 °F 64.4 °F 41% 29.96 in 10.0 mi Calm Calm - N/A   Clear
6:15 PM 90.5 °F 93.8 °F 66.9 °F 46% 29.95 in 10.0 mi Calm Calm - N/A   Clear
6:35 PM 89.2 °F 92.4 °F 67.1 °F 48% 29.96 in 10.0 mi Calm Calm - N/A   Clear
6:55 PM 87.1 °F 90.9 °F 68.4 °F 54% 29.95 in 10.0 mi Calm Calm - N/A   Clear
7:15 PM 85.3 °F 89.1 °F 68.9 °F 58% 29.96 in 10.0 mi Calm Calm - N/A   Clear
7:35 PM 84.2 °F 88.7 °F 70.3 °F 63% 29.96 in 10.0 mi Calm Calm - N/A   Clear
7:55 PM 81.7 °F 86.3 °F 71.8 °F 72% 29.97 in 10.0 mi Calm Calm - N/A   Clear
8:15 PM 79.5 °F - 70.3 °F 73% 29.97 in 10.0 mi Calm Calm - N/A   Clear
8:35 PM 77.9 °F - 69.8 °F 76% 29.97 in 10.0 mi Calm Calm - N/A   Clear
8:55 PM 76.8 °F - 69.8 °F 79% 29.98 in 10.0 mi Calm Calm - N/A   Clear
9:15 PM 76.3 °F - 69.4 °F 79% 29.99 in 10.0 mi Calm Calm - N/A   Clear
9:35 PM 75.9 °F - 68.9 °F 79% 29.99 in 10.0 mi Calm Calm - N/A   Clear
9:55 PM 73.6 °F - 69.1 °F 86% 29.99 in 10.0 mi Calm Calm - N/A   Clear
10:15 PM 74.1 °F - 68.9 °F 84% 30.00 in 10.0 mi Calm Calm - N/A   Clear
10:35 PM 74.3 °F - 68.9 °F 83% 30.00 in 10.0 mi Calm Calm - N/A   Clear
10:55 PM 73.4 °F - 68.5 °F 85% 30.00 in 10.0 mi Calm Calm - N/A   Clear
11:15 PM 72.7 °F - 68.4 °F 86% 30.01 in 10.0 mi Calm Calm - N/A   Clear
11:35 PM 73.0 °F - 68.4 °F 85% 30.00 in 10.0 mi Calm Calm - N/A   Clear
11:55 PM 72.1 °F - 68.2 °F 87% 30.01 in 10.0 mi Calm Calm - N/A   Clear